Location: Unspecified
(43.4680°N, 87.1740°E)
Time: 19:44:31
(UTC+00:00)

Cosmos 2333 Rocket - Pass Details

Date: 17 April 2021
Orbit: 838 x 864 km, 70.8° (Epoch: 11 May)

Event Time Altitude Azimuth Distance (km) Brightness Sun altitude
Rises 13:20:41 0° 341° (NNW) 3,453 6.0 -5.0°
Reaches altitude 10° 13:23:25 10° 350° (N) 2,511 5.1 -5.4°
Maximum altitude 13:28:38 34° 55° (NE) 1,395 3.1 -6.3°
Drops below altitude 10° 13:33:47 10° 119° (ESE) 2,487 4.0 -7.2°
Enters shadow 13:34:12 - 121° (ESE) 2,629 4.1 -7.3°
